Weather in Lixoslavl

Russia / Tver Oblast     57°07′19″N   35°28′00″E
temp.,
°C
wind,
m/s
gust,
m/s
humid.,
%
clouds,
%
prec.,
mm/h
press.,
hPa
HPBL,
m
21 january, fri
fri2100:00−2s51296100 0.4 996794
03:00−2s51189100 0.6 996779
06:00−3s41192100 0.0 996718
09:00−4se41193100 0.1 996440
12:00−3sse41094100 0.4 995719
15:00−3se4891100 0.8 996592
18:00−6ese3897100 0.1 996210
21:00−10ene249987 0.1 99753
22 january, sat
sat2200:00−12ene2399100 0.0 99949
03:00−12ene249998 0.1 100175
06:00−13ene259993 0.1 100269
09:00−13ne269999 0.1 100594
12:00−8ene369499 0.1 1007238
15:00−7ne3794100 0.1 1009379
18:00−8ne379599 0.3 1011242
21:00−10ne369788 0.4 1014133
23 january, sun
sun2300:00−13nne269990 0.1 101783
03:00−14nne249893 0.1 102070
06:00−16nne1110083 0.1 102223
09:00−17n22100100 0.1 102628
12:00−11ene119486 0.0 1028104
15:00−9nw129448 0.1 1030119
18:00−15nw229968 0.0 103311
21:00−18wnw0010081 0.0 10359
24 january, mon
mon2400:00−18w1110083 0.0 10369
03:00−19w1110071 0.0 10389
06:00−20ssw2110068 0.0 103715
09:00−20ssw1110067 0.0 10389
12:00−11ssw239319 0.0 1037128
15:00−8ssw26935 0.0 1036235
18:00−13ssw259862 0.0 103577
21:00−14ssw289756 0.0 1034113
25 january, tue
tue2500:00−13ssw311969 0.0 1033187
03:00−13ssw311958 0.0 1031203
06:00−13ssw514915 0.0 1028289
09:00−12ssw515875 0.0 1026338
12:00−9ssw5158110 0.0 1023429
15:00−7ssw51490100 0.1 1020475
18:00−7ssw51394100 0.6 1019469
21:00−7ssw41095100 1.1 1018380